Flag for Germany Weather past 2 weeks in Siegen, North Rhine-Westphalia, Germany

34 °F


Feels Like: 26 °F
Forecast: 28 / 41 °F
Wind: 9 mph from Southwest

Location: Hessen

Current Time: Nov 25, 2015 at 11:15:24 AM

Latest Report: Nov 25, 2015 at 10:20 AM

Visibility: 0 mi

Pressure: 29.68 "Hg

Humidity: 100%

Dew point: 34 °F

Location of SiegenLocation

Historic Weather in Siegen — Graph


Siegen temperature yesterday

Maximum temperature yesterday: 30 °F (at 1:20 PM)
Minimum temperature yesterday: 28 °F (at 7:50 AM)
Average temperature yesterday: 29 °F

Past Weeks' High & Low Weather Summary

High55 °F (Nov 15, 2:20 PM)100% (Nov 10, 12:50 PM)30.33 "Hg (Nov 10, 12:50 PM)
Low28 °F (Nov 22, 4:50 PM)71% (Nov 18, 9:20 AM)29.36 "Hg (Nov 21, 11:50 AM)
Average43 °F94%29.97 "Hg
* Reported Nov 10 9:20 AM — Nov 25 9:50 AM, Siegen, Weather by CustomWeather, © 2015

Note: Actual official high and low records may vary slightly from our data, if they occured in-between our weather recording intervals... More about our weather records


Siegen weather history for previous 24 hours

Time TempWeatherWind HumidityBarometerVisibility
9:50 AM
Wed, Nov 25
32 °FIce fog.8 mph100%29.65 "Hg0 mi
9:20 AM32 °FChilly.9 mph100%29.68 "Hg0 mi
8:50 AM32 °FLight snow. Ice fog.9 mph100%29.65 "Hg1 mi
8:50 PM
Tue, Nov 24
28 °FSnow. Passing clouds.16 mph100%29.80 "Hg1 mi
8:20 PM28 °FSnow. Overcast.16 mph100%29.83 "Hg1 mi
7:50 PM28 °FSnow. Ice fog.18 mph100%29.83 "Hg1 mi
7:20 PM28 °FSnow. Ice fog.17 mph100%29.83 "Hg1 mi
6:50 PM28 °FLight snow. Ice fog.18 mph100%29.86 "Hg1 mi
6:20 PM28 °FSnow. Ice fog.18 mph100%29.86 "Hg1 mi
5:50 PM28 °FSnow. Ice fog.18 mph100%29.86 "Hg1 mi
5:20 PM28 °FSnow. Ice fog.16 mph100%29.89 "Hg2 mi
4:50 PM30 °FLight snow. Ice fog.14 mph93%29.89 "Hg2 mi
4:20 PM30 °FLight snow. Ice fog.14 mph93%29.92 "Hg2 mi
3:50 PM30 °FBroken clouds.12 mph93%29.92 "Hg5 mi
3:20 PM30 °FBroken clouds.15 mph93%29.95 "Hg4 mi
2:50 PM30 °FBroken clouds.16 mph100%29.95 "Hg4 mi
2:20 PM30 °FPartly sunny.14 mph93%29.98 "Hg5 mi
1:50 PM30 °FPartly sunny.13 mph93%29.98 "Hg4 mi
1:20 PM30 °FPartly sunny.13 mph93%30.01 "Hg4 mi
12:50 PM28 °FPartly sunny.13 mph100%30.04 "Hg4 mi
12:20 PM28 °FPartly sunny.14 mph100%30.04 "Hg4 mi
11:50 AM28 °FPartly sunny.13 mph100%30.07 "Hg4 mi
11:20 AM28 °FPartly sunny.12 mph100%30.07 "Hg4 mi
Weather by CustomWeather, © 2015

See weather overviewHow to use our weather pages